Location: Casa Rossa
(45.2389°N, 12.2056°E)
Time: 22:37:37
(UTC+00:00)

Helios 1B rocket - Pass Details

Date: 14 July 2020
Orbit: 574 x 584 km, 98.1° (Epoch: 14 August)

Event Time Altitude Azimuth Distance (km) Brightness Sun altitude
Rises 00:26:34 0° 5° (N) 2,809 7.4 -21.3°
Reaches altitude 10° 00:28:51 10° 357° (N) 1,903 6.0 -21.2°
Maximum altitude 00:32:37 35° 291° (WNW) 939 3.4 -21.0°
Enters shadow 00:33:20 33° 268° (W) 989 3.4 -20.9°
